| time (UTC) | temp F | wind direction | speed MPH | gust MPH | rain 1hr in | rain 24hr in | rain mn in | humidity % | barometer mb |
| 20260505003141 | 77 | 285 | 2.0 | 7.0 | 0.00 | 0.00 | 0.00 | 47 | 1009.2 |
| 20260505000034 | 79 | 284 | 3.0 | 11.0 | 0.00 | 0.00 | 0.00 | 45 | 1009.2 |
| 20260504233142 | 80 | 248 | 3.0 | 7.0 | 0.00 | 0.00 | 0.00 | 45 | 1009.3 |
| 20260504230036 | 81 | 262 | 2.0 | 7.0 | 0.00 | 0.00 | 0.00 | 45 | 1009.5 |
| 20260504223031 | 80 | 259 | 3.0 | 11.0 | 0.00 | 0.00 | 0.00 | 45 | 1009.8 |
| 20260504221536 | 79 | 265 | 3.0 | 8.0 | 0.00 | 0.00 | 0.00 | 46 | 1009.8 |
| 20260504220034 | 79 | 274 | 3.0 | 8.0 | 0.00 | 0.00 | 0.00 | 47 | 1010.0 |
| 20260504214531 | 78 | 259 | 2.0 | 8.0 | 0.00 | 0.00 | 0.00 | 48 | 1010.2 |
| 20260504213111 | 77 | 298 | 3.0 | 9.0 | 0.00 | 0.00 | 0.00 | 47 | 1010.4 |
| 20260504210036 | 77 | 291 | 2.0 | 8.0 | 0.00 | 0.00 | 0.00 | 48 | 1010.8 |
| 20260504204531 | 76 | 287 | 2.0 | 8.0 | 0.00 | 0.00 | 0.00 | 49 | 1011.0 |
| 20260504203037 | 76 | 301 | 3.0 | 9.0 | 0.00 | 0.00 | 0.00 | 49 | 1011.1 |
| 20260504200032 | 75 | 294 | 2.0 | 8.0 | 0.00 | 0.00 | 0.00 | 50 | 1011.2 |
| 20260504194542 | 75 | 289 | 2.0 | 7.0 | 0.00 | 0.00 | 0.00 | 51 | 1011.3 |
| 20260504193037 | 73 | 319 | 3.0 | 8.0 | 0.00 | 0.00 | 0.00 | 52 | 1011.4 |
| 20260504191531 | 72 | 322 | 4.0 | 10.0 | 0.00 | 0.00 | 0.00 | 53 | 1011.6 |
| 20260504190032 | 72 | 326 | 5.0 | 13.0 | 0.00 | 0.00 | 0.00 | 53 | 1011.6 |
| 20260504184531 | 71 | 327 | 5.0 | 14.0 | 0.00 | 0.00 | 0.00 | 54 | 1011.7 |
| 20260504183031 | 71 | 325 | 4.0 | 11.0 | 0.00 | 0.00 | 0.00 | 55 | 1011.7 |
| 20260504174536 | 68 | 318 | 6.0 | 14.0 | 0.00 | 0.00 | 0.00 | 59 | 1011.8 |
| 20260504173141 | 68 | 323 | 7.0 | 15.0 | 0.00 | 0.00 | 0.00 | 59 | 1011.8 |
| 20260504171643 | 67 | 326 | 6.0 | 14.0 | 0.00 | 0.00 | 0.00 | 59 | 1011.8 |
| 20260504090110 | 56 | 149 | 3.0 | 6.0 | 0.00 | 0.00 | 0.00 | 67 | 1011.3 |
| 20260504081641 | 59 | 146 | 4.0 | 8.0 | 0.00 | 0.00 | 0.00 | 61 | 1011.3 |
| 20260504044535 | 69 | 144 | 7.0 | 13.0 | 0.00 | 0.00 | 0.00 | 47 | 1010.3 |
| 20260504043037 | 70 | 141 | 7.0 | 13.0 | 0.00 | 0.00 | 0.00 | 47 | 1009.8 |
| 20260504041534 | 71 | 139 | 5.0 | 11.0 | 0.00 | 0.00 | 0.00 | 45 | 1009.7 |
| 20260504033031 | 71 | 146 | 6.0 | 11.0 | 0.00 | 0.00 | 0.00 | 46 | 1009.3 |
| 20260504031532 | 72 | 143 | 5.0 | 8.0 | 0.00 | 0.00 | 0.00 | 45 | 1009.2 |
| 20260504030035 | 73 | 146 | 5.0 | 7.0 | 0.00 | 0.00 | 0.00 | 47 | 1009.1 |
| 20260504024530 | 74 | 155 | 4.0 | 6.0 | 0.00 | 0.00 | 0.00 | 49 | 1009.0 |
| 20260504021531 | 79 | 157 | 1.0 | 3.0 | 0.00 | 0.00 | 0.00 | 40 | 1009.2 |
| 20260504020035 | 81 | 156 | 1.0 | 3.0 | 0.00 | 0.00 | 0.00 | 33 | 1009.2 |
| 20260504014534 | 83 | 138 | 2.0 | 5.0 | 0.00 | 0.00 | 0.00 | 30 | 1009.4 |
| 20260504013034 | 85 | 128 | 1.0 | 4.0 | 0.00 | 0.00 | 0.00 | 28 | 1009.5 |
| 20260504010033 | 88 | 160 | 2.0 | 7.0 | 0.00 | 0.00 | 0.00 | 27 | 1009.8 |
| 20260504004535 | 88 | 127 | 2.0 | 7.0 | 0.00 | 0.00 | 0.00 | 27 | 1009.9 |